KLM312 EDDF-LYBE

Flight info

Callsign KLM312
Flight time 1h 31m
Altitude 37000
Route CINDY8S/18 CINDY Z74 LAMPU DCT NOMBO Y161 MAH DCT LATLO/N0445F390 DCT OBEDI DCT GOLVA DCT OBUTI DCT LAKIK DCT RIGMU
Aircraft B737/M-SDE2E3FGHIRWXY/LB1

Departure

Time 2026-04-15 09:16
Airport Frankfurt Main Airport (EDDF)

Arrival

Time 2026-04-15 10:47
Airport Belgrade Nikola Tesla Airport (LYBE)
Time Latitude Longitude Altitude Speed Heading
2026-04-15 08:52 50.04690 8.56693 344 ft 0 kts 114°
2026-04-15 09:01 50.04701 8.56660 344 ft 4 kts 121°
2026-04-15 09:01 50.04716 8.56627 360 ft 4 kts 143°
2026-04-15 09:02 50.04734 8.56615 354 ft 4 kts 219°
2026-04-15 09:02 50.04737 8.56619 344 ft 1 kts 231°
2026-04-15 09:05 50.04733 8.56610 356 ft 2 kts 231°
2026-04-15 09:05 50.04715 8.56575 348 ft 5 kts 232°
2026-04-15 09:06 50.04692 8.56527 347 ft 6 kts 236°
2026-04-15 09:06 50.04676 8.56473 348 ft 5 kts 249°
2026-04-15 09:06 50.04662 8.56419 344 ft 5 kts 249°
2026-04-15 09:06 50.04651 8.56365 350 ft 5 kts 250°
2026-04-15 09:07 50.04637 8.56313 349 ft 5 kts 248°
2026-04-15 09:07 50.04625 8.56261 344 ft 5 kts 249°
2026-04-15 09:07 50.04609 8.56193 349 ft 8 kts 249°
2026-04-15 09:07 50.04584 8.56087 354 ft 13 kts 249°
2026-04-15 09:08 50.04545 8.55970 355 ft 9 kts 219°
2026-04-15 09:08 50.04484 8.55937 349 ft 9 kts 196°
2026-04-15 09:08 50.04425 8.55909 352 ft 9 kts 191°
2026-04-15 09:08 50.04365 8.55918 344 ft 9 kts 163°
2026-04-15 09:09 50.04310 8.55948 352 ft 8 kts 160°
2026-04-15 09:09 50.04256 8.55951 348 ft 8 kts 207°
2026-04-15 09:09 50.04226 8.55881 344 ft 8 kts 249°
2026-04-15 09:09 50.04205 8.55798 355 ft 9 kts 249°
2026-04-15 09:10 50.04180 8.55690 349 ft 12 kts 250°
2026-04-15 09:10 50.04145 8.55546 352 ft 16 kts 250°
2026-04-15 09:10 50.04107 8.55388 354 ft 15 kts 249°
2026-04-15 09:10 50.04071 8.55236 347 ft 15 kts 248°
2026-04-15 09:11 50.04036 8.55091 344 ft 14 kts 250°
2026-04-15 09:11 50.04003 8.54952 350 ft 13 kts 250°
2026-04-15 09:11 50.03970 8.54820 346 ft 13 kts 250°
2026-04-15 09:11 50.03941 8.54690 349 ft 13 kts 249°
2026-04-15 09:12 50.03908 8.54558 354 ft 14 kts 249°
2026-04-15 09:12 50.03872 8.54405 344 ft 16 kts 246°
2026-04-15 09:12 50.03807 8.54247 346 ft 18 kts 242°
2026-04-15 09:12 50.03759 8.54052 349 ft 20 kts 250°
2026-04-15 09:13 50.03714 8.53860 351 ft 19 kts 250°
2026-04-15 09:13 50.03667 8.53668 344 ft 19 kts 249°
2026-04-15 09:13 50.03619 8.53485 353 ft 18 kts 250°
2026-04-15 09:13 50.03577 8.53305 354 ft 17 kts 249°
2026-04-15 09:14 50.03538 8.53139 344 ft 17 kts 249°
2026-04-15 09:14 50.03498 8.52972 348 ft 16 kts 251°
2026-04-15 09:14 50.03456 8.52814 347 ft 16 kts 246°
2026-04-15 09:14 50.03423 8.52687 352 ft 8 kts 249°
2026-04-15 09:15 50.03397 8.52622 350 ft 8 kts 224°
2026-04-15 09:15 50.03348 8.52594 353 ft 8 kts 185°
2026-04-15 09:15 50.03330 8.52594 344 ft 3 kts 180°
2026-04-15 09:15 50.03124 8.52595 345 ft 71 kts 180°
2026-04-15 09:16 50.02335 8.52607 352 ft 152 kts 179°
2026-04-15 09:16 50.01105 8.52600 701 ft 193 kts 178°
2026-04-15 09:16 49.99797 8.52636 2075 ft 177 kts 179°
2026-04-15 09:16 49.98565 8.52638 3273 ft 183 kts 177°
2026-04-15 09:17 49.97219 8.52818 3813 ft 205 kts 156°
2026-04-15 09:17 49.96078 8.54226 3992 ft 223 kts 123°
2026-04-15 09:17 49.95287 8.56288 4007 ft 223 kts 118°
2026-04-15 09:17 49.94533 8.58402 3991 ft 224 kts 117°
2026-04-15 09:18 49.94045 8.60684 3988 ft 227 kts 94°
2026-04-15 09:18 49.93951 8.63153 4001 ft 230 kts 93°
2026-04-15 09:18 49.93860 8.65630 4180 ft 234 kts 94°
2026-04-15 09:18 49.93716 8.68186 5061 ft 239 kts 104°
2026-04-15 09:19 49.92895 8.70395 5974 ft 241 kts 134°
2026-04-15 09:19 49.91592 8.72067 6785 ft 245 kts 146°
2026-04-15 09:19 49.90180 8.73592 7556 ft 249 kts 147°
2026-04-15 09:19 49.88749 8.75154 8295 ft 255 kts 140°
2026-04-15 09:20 49.87687 8.77379 9048 ft 259 kts 120°
2026-04-15 09:20 49.86810 8.79849 9814 ft 265 kts 119°
2026-04-15 09:20 49.85919 8.82386 10535 ft 270 kts 120°
2026-04-15 09:20 49.85002 8.84943 11088 ft 270 kts 120°
2026-04-15 09:21 49.84080 8.87491 11252 ft 274 kts 121°
2026-04-15 09:21 49.83137 8.90091 11260 ft 278 kts 121°
2026-04-15 09:21 49.82182 8.92722 11681 ft 282 kts 120°
2026-04-15 09:21 49.81227 8.95352 12468 ft 281 kts 120°
2026-04-15 09:22 49.80267 8.98000 13216 ft 282 kts 120°
2026-04-15 09:22 49.79308 9.00677 13896 ft 287 kts 120°
2026-04-15 09:22 49.78323 9.03391 14545 ft 290 kts 120°
2026-04-15 09:22 49.77330 9.06108 15193 ft 293 kts 119°
2026-04-15 09:23 49.76330 9.08880 15837 ft 295 kts 115°
2026-04-15 09:23 49.75667 9.11841 16464 ft 296 kts 102°
2026-04-15 09:23 49.75197 9.15003 17067 ft 300 kts 101°
2026-04-15 09:23 49.74718 9.18095 17673 ft 303 kts 108°
2026-04-15 09:24 49.73596 9.20923 18319 ft 306 kts 129°
2026-04-15 09:24 49.72197 9.23383 18833 ft 313 kts 130°
2026-04-15 09:24 49.70675 9.25991 19036 ft 335 kts 131°
2026-04-15 09:24 49.69091 9.28707 19214 ft 357 kts 131°
2026-04-15 09:25 49.67384 9.31660 19366 ft 379 kts 130°
2026-04-15 09:25 49.66186 9.33748 19535 ft 391 kts 130°
2026-04-15 09:25 49.63745 9.38010 20051 ft 407 kts 130°
2026-04-15 09:25 49.61774 9.41129 20747 ft 410 kts 138°
2026-04-15 09:26 49.59456 9.43757 21402 ft 415 kts 147°
2026-04-15 09:26 49.56966 9.46047 22022 ft 419 kts 149°
2026-04-15 09:26 49.54433 9.48301 22723 ft 421 kts 149°
2026-04-15 09:26 49.51892 9.50560 23391 ft 424 kts 149°
2026-04-15 09:27 49.49348 9.52844 23937 ft 429 kts 149°
2026-04-15 09:27 49.46767 9.55183 24380 ft 434 kts 148°
2026-04-15 09:27 49.44142 9.57573 24814 ft 439 kts 148°
2026-04-15 09:27 49.41501 9.59982 25258 ft 444 kts 148°
2026-04-15 09:28 49.38839 9.62408 25693 ft 448 kts 148°
2026-04-15 09:28 49.36145 9.64860 26129 ft 452 kts 148°
2026-04-15 09:28 49.33521 9.67551 26532 ft 455 kts 139°
2026-04-15 09:28 49.31177 9.70841 26949 ft 458 kts 132°
2026-04-15 09:29 49.28934 9.74324 27392 ft 461 kts 131°
2026-04-15 09:29 49.26701 9.77840 27798 ft 465 kts 131°
2026-04-15 09:29 49.24418 9.81413 28220 ft 469 kts 131°
2026-04-15 09:29 49.22110 9.84984 28654 ft 472 kts 131°
2026-04-15 09:30 49.19786 9.88541 29052 ft 476 kts 131°
2026-04-15 09:30 49.17423 9.92135 29405 ft 480 kts 131°
2026-04-15 09:30 49.15043 9.95743 29762 ft 484 kts 131°
2026-04-15 09:30 49.12660 9.99350 30117 ft 487 kts 131°
2026-04-15 09:31 49.10236 10.03012 30436 ft 490 kts 131°
2026-04-15 09:31 49.07790 10.06708 30718 ft 493 kts 131°
2026-04-15 09:31 49.05337 10.10385 31007 ft 496 kts 132°
2026-04-15 09:31 49.02815 10.13985 31379 ft 497 kts 133°
2026-04-15 09:32 49.00264 10.17526 31815 ft 496 kts 133°
2026-04-15 09:32 48.97736 10.21040 32214 ft 496 kts 133°
2026-04-15 09:32 48.95199 10.24595 32590 ft 496 kts 132°
2026-04-15 09:32 48.92663 10.28169 32878 ft 498 kts 132°
2026-04-15 09:33 48.90119 10.31759 33200 ft 498 kts 132°
2026-04-15 09:33 48.87573 10.35346 33550 ft 498 kts 132°
2026-04-15 09:33 48.85029 10.38922 33880 ft 499 kts 132°
2026-04-15 09:33 48.82507 10.42491 34170 ft 498 kts 130°
2026-04-15 09:34 48.80094 10.46246 34510 ft 495 kts 127°
2026-04-15 09:34 48.77811 10.50015 34827 ft 493 kts 126°
2026-04-15 09:34 48.75454 10.53918 35194 ft 492 kts 127°
2026-04-15 09:34 48.73175 10.57624 35514 ft 490 kts 128°
2026-04-15 09:35 48.70809 10.61364 35816 ft 491 kts 128°
2026-04-15 09:35 48.68435 10.65054 36080 ft 490 kts 129°
2026-04-15 09:35 48.66034 10.68783 36361 ft 489 kts 129°
2026-04-15 09:35 48.63703 10.72451 36647 ft 487 kts 128°
2026-04-15 09:36 48.61374 10.76178 36910 ft 487 kts 128°
2026-04-15 09:36 48.59815 10.78676 37079 ft 487 kts 128°
2026-04-15 09:36 48.56739 10.83600 37241 ft 490 kts 128°
2026-04-15 09:36 48.55147 10.86153 37231 ft 491 kts 128°
2026-04-15 09:37 48.50497 10.93591 37236 ft 483 kts 128°
2026-04-15 09:37 48.45890 11.00866 37243 ft 478 kts 129°
2026-04-15 09:38 48.41262 11.08051 37249 ft 478 kts 129°
2026-04-15 09:38 48.36651 11.15199 37235 ft 479 kts 129°
2026-04-15 09:39 48.32026 11.22362 37218 ft 479 kts 129°
2026-04-15 09:39 48.27405 11.29538 37225 ft 478 kts 127°
2026-04-15 09:40 48.23696 11.37704 37415 ft 471 kts 114°
2026-04-15 09:40 48.22113 11.41979 37720 ft 468 kts 114°
2026-04-15 09:40 48.20538 11.46259 38034 ft 466 kts 114°
2026-04-15 09:41 48.18973 11.50484 38342 ft 464 kts 115°
2026-04-15 09:41 48.17405 11.54677 38598 ft 463 kts 115°
2026-04-15 09:41 48.15814 11.58898 38791 ft 463 kts 115°
2026-04-15 09:41 48.14221 11.63099 38954 ft 464 kts 116°
2026-04-15 09:42 48.12625 11.67289 39109 ft 464 kts 116°
2026-04-15 09:42 48.11022 11.71484 39223 ft 466 kts 116°
2026-04-15 09:42 48.07791 11.79918 39225 ft 466 kts 116°
2026-04-15 09:43 48.04586 11.88254 39223 ft 462 kts 116°
2026-04-15 09:43 48.01383 11.96563 39221 ft 459 kts 116°
2026-04-15 09:44 47.98200 12.04800 39231 ft 458 kts 116°
2026-04-15 09:44 47.95005 12.13042 39233 ft 459 kts 116°
2026-04-15 09:45 47.91824 12.21228 39240 ft 460 kts 117°
2026-04-15 09:45 47.88574 12.29561 39235 ft 463 kts 117°
2026-04-15 09:46 47.85326 12.37864 39238 ft 466 kts 117°
2026-04-15 09:46 47.82056 12.46193 39229 ft 468 kts 117°
2026-04-15 09:47 47.78765 12.54550 39232 ft 470 kts 117°
2026-04-15 09:47 47.75440 12.62966 39229 ft 471 kts 117°
2026-04-15 09:48 47.72125 12.71335 39243 ft 470 kts 117°
2026-04-15 09:48 47.68761 12.79662 39212 ft 470 kts 122°
2026-04-15 09:49 47.64417 12.86915 39224 ft 472 kts 133°
2026-04-15 09:49 47.59691 12.93715 39212 ft 471 kts 133°
2026-04-15 09:50 47.55030 13.00470 39205 ft 469 kts 133°
2026-04-15 09:50 47.50398 13.07266 39217 ft 469 kts 133°
2026-04-15 09:51 47.45782 13.14049 39203 ft 468 kts 133°
2026-04-15 09:51 47.41186 13.20778 39190 ft 467 kts 133°
2026-04-15 09:52 47.36573 13.27511 39191 ft 467 kts 133°
2026-04-15 09:52 47.32528 13.34903 39194 ft 462 kts 117°
2026-04-15 09:53 47.29983 13.43537 39211 ft 459 kts 108°
2026-04-15 09:53 47.27801 13.52373 39197 ft 459 kts 108°
2026-04-15 09:54 47.25599 13.61183 39196 ft 460 kts 108°
2026-04-15 09:54 47.23346 13.70010 39210 ft 460 kts 108°
2026-04-15 09:55 47.21078 13.78799 39221 ft 460 kts 109°
2026-04-15 09:55 47.18797 13.87594 39215 ft 461 kts 109°
2026-04-15 09:56 47.16501 13.96418 39220 ft 461 kts 109°
2026-04-15 09:57 47.13059 14.09591 39223 ft 462 kts 109°
2026-04-15 09:57 47.10746 14.18403 39227 ft 461 kts 109°
2026-04-15 09:58 47.08433 14.27176 39219 ft 462 kts 109°
2026-04-15 09:58 47.06112 14.35955 39233 ft 462 kts 109°
2026-04-15 09:59 47.03790 14.44699 39224 ft 462 kts 109°
2026-04-15 09:59 47.01437 14.53524 39224 ft 462 kts 110°
2026-04-15 10:00 46.99097 14.62270 39220 ft 462 kts 110°
2026-04-15 10:00 46.96741 14.71046 39228 ft 462 kts 110°
2026-04-15 10:01 46.94399 14.79736 39216 ft 463 kts 110°
2026-04-15 10:01 46.92030 14.88495 39223 ft 463 kts 110°
2026-04-15 10:02 46.89654 14.97243 39217 ft 463 kts 110°
2026-04-15 10:02 46.87267 15.06002 39228 ft 464 kts 110°
2026-04-15 10:03 46.84873 15.14755 39225 ft 464 kts 110°
2026-04-15 10:03 46.82476 15.23486 39234 ft 464 kts 110°
2026-04-15 10:04 46.80070 15.32215 39231 ft 464 kts 111°
2026-04-15 10:04 46.77658 15.40938 39229 ft 464 kts 111°
2026-04-15 10:05 46.75239 15.49655 39226 ft 463 kts 111°
2026-04-15 10:05 46.72818 15.58346 39231 ft 464 kts 111°
2026-04-15 10:06 46.70097 15.66845 39219 ft 464 kts 123°
2026-04-15 10:06 46.66210 15.74376 39230 ft 464 kts 128°
2026-04-15 10:07 46.62219 15.81730 39230 ft 464 kts 128°
2026-04-15 10:07 46.58269 15.89096 39232 ft 464 kts 127°
2026-04-15 10:08 46.54327 15.96509 39214 ft 464 kts 127°
2026-04-15 10:08 46.50361 16.03958 39204 ft 464 kts 128°
2026-04-15 10:09 46.46432 16.11316 39210 ft 464 kts 128°
2026-04-15 10:09 46.42485 16.18684 39208 ft 464 kts 128°
2026-04-15 10:10 46.38526 16.26057 39201 ft 464 kts 128°
2026-04-15 10:10 46.34983 16.33783 39207 ft 464 kts 121°
2026-04-15 10:11 46.31739 16.41835 39197 ft 463 kts 120°
2026-04-15 10:11 46.28478 16.49907 39195 ft 463 kts 121°
2026-04-15 10:12 46.25187 16.57891 39188 ft 462 kts 121°
2026-04-15 10:12 46.21873 16.65847 39187 ft 462 kts 122°
2026-04-15 10:13 46.18555 16.73775 39190 ft 462 kts 121°
2026-04-15 10:13 46.15243 16.81672 39189 ft 462 kts 121°
2026-04-15 10:14 46.11899 16.89627 39190 ft 462 kts 121°
2026-04-15 10:14 46.08577 16.97506 39184 ft 463 kts 122°
2026-04-15 10:15 46.05227 17.05430 39190 ft 464 kts 122°
2026-04-15 10:15 46.01856 17.13382 39188 ft 465 kts 122°
2026-04-15 10:16 45.98482 17.21317 39188 ft 466 kts 122°
2026-04-15 10:16 45.95093 17.29263 39187 ft 466 kts 122°
2026-04-15 10:17 45.91700 17.37198 39191 ft 466 kts 122°
2026-04-15 10:17 45.88297 17.45132 39182 ft 467 kts 122°
2026-04-15 10:18 45.84883 17.53072 39189 ft 467 kts 122°
2026-04-15 10:18 45.81470 17.60985 39187 ft 467 kts 122°
2026-04-15 10:19 45.78055 17.68882 39188 ft 466 kts 122°
2026-04-15 10:19 45.74658 17.76714 39184 ft 466 kts 123°
2026-04-15 10:20 45.71226 17.84605 39186 ft 465 kts 123°
2026-04-15 10:20 45.67812 17.92431 39186 ft 464 kts 123°
2026-04-15 10:21 45.64424 18.00180 39163 ft 445 kts 123°
2026-04-15 10:21 45.62811 18.03862 39165 ft 430 kts 123°
2026-04-15 10:21 45.61270 18.07459 39165 ft 417 kts 118°
2026-04-15 10:21 45.60098 18.11176 39169 ft 404 kts 110°
2026-04-15 10:22 45.59370 18.15029 39184 ft 402 kts 102°
2026-04-15 10:22 45.58271 18.22974 39203 ft 414 kts 101°
2026-04-15 10:23 45.57341 18.29753 39203 ft 423 kts 102°
2026-04-15 10:23 45.55992 18.39317 39187 ft 424 kts 102°
2026-04-15 10:24 45.54808 18.47536 39180 ft 423 kts 102°
2026-04-15 10:24 45.53803 18.54464 39179 ft 423 kts 102°
2026-04-15 10:25 45.52606 18.62669 39182 ft 422 kts 103°
2026-04-15 10:25 45.51473 18.70392 39177 ft 421 kts 103°
2026-04-15 10:26 45.50304 18.78334 39182 ft 420 kts 103°
2026-04-15 10:26 45.49364 18.84693 39181 ft 419 kts 103°
2026-04-15 10:27 45.48160 18.92792 39183 ft 418 kts 103°
2026-04-15 10:27 45.46961 19.00819 38934 ft 407 kts 103°
2026-04-15 10:27 45.46374 19.04735 38413 ft 401 kts 103°
2026-04-15 10:28 45.45785 19.08651 37284 ft 410 kts 103°
2026-04-15 10:28 45.45173 19.12697 35924 ft 425 kts 103°
2026-04-15 10:28 45.44549 19.16822 34544 ft 440 kts 103°
2026-04-15 10:28 45.43894 19.21146 32996 ft 452 kts 103°
2026-04-15 10:29 45.43214 19.25620 31471 ft 461 kts 104°
2026-04-15 10:29 45.42532 19.30104 30291 ft 462 kts 104°
2026-04-15 10:29 45.41864 19.34488 29292 ft 458 kts 104°
2026-04-15 10:29 45.41185 19.38913 28472 ft 445 kts 105°
2026-04-15 10:30 45.40227 19.42961 27529 ft 434 kts 116°
2026-04-15 10:30 45.38925 19.46775 26571 ft 428 kts 118°
2026-04-15 10:30 45.37559 19.50520 25618 ft 422 kts 119°
2026-04-15 10:30 45.36204 19.54204 24702 ft 417 kts 118°
2026-04-15 10:31 45.34884 19.57847 23819 ft 412 kts 118°
2026-04-15 10:31 45.33598 19.61459 22841 ft 406 kts 117°
2026-04-15 10:31 45.32471 19.64658 21995 ft 401 kts 117°
2026-04-15 10:31 45.31240 19.68170 21105 ft 394 kts 117°
2026-04-15 10:32 45.30023 19.71648 20112 ft 392 kts 117°
2026-04-15 10:32 45.28816 19.75098 19246 ft 387 kts 117°
2026-04-15 10:32 45.27631 19.78477 18507 ft 379 kts 117°
2026-04-15 10:32 45.26459 19.81814 17579 ft 375 kts 117°
2026-04-15 10:33 45.25304 19.85102 16687 ft 370 kts 117°
2026-04-15 10:33 45.24166 19.88334 15874 ft 363 kts 117°
2026-04-15 10:33 45.23028 19.91499 15189 ft 354 kts 120°
2026-04-15 10:33 45.21787 19.94415 14849 ft 337 kts 122°
2026-04-15 10:34 45.20567 19.97129 14690 ft 316 kts 123°
2026-04-15 10:34 45.19423 19.99696 14401 ft 302 kts 123°
2026-04-15 10:34 45.18332 20.02168 14138 ft 289 kts 123°
2026-04-15 10:34 45.17286 20.04549 13756 ft 281 kts 122°
2026-04-15 10:35 45.16265 20.06880 13248 ft 277 kts 123°
2026-04-15 10:35 45.15252 20.09193 12724 ft 275 kts 123°
2026-04-15 10:35 45.14100 20.11315 12177 ft 271 kts 142°
2026-04-15 10:35 45.12432 20.12458 11666 ft 266 kts 170°
2026-04-15 10:36 45.10605 20.12431 11171 ft 263 kts 193°
2026-04-15 10:36 45.08920 20.11443 10667 ft 264 kts 209°
2026-04-15 10:36 45.07359 20.10090 10190 ft 263 kts 216°
2026-04-15 10:36 45.06169 20.08167 9677 ft 262 kts 244°
2026-04-15 10:37 45.05754 20.05670 9124 ft 264 kts 270°
2026-04-15 10:37 45.06132 20.03165 8633 ft 262 kts 295°
2026-04-15 10:37 45.07041 20.00955 8167 ft 259 kts 302°
2026-04-15 10:37 45.08005 19.98799 7678 ft 258 kts 302°
2026-04-15 10:38 45.08956 19.96656 7210 ft 257 kts 302°
2026-04-15 10:38 45.09897 19.94524 6755 ft 254 kts 301°
2026-04-15 10:38 45.10446 19.92221 6228 ft 254 kts 268°
2026-04-15 10:38 45.09968 19.90011 5780 ft 249 kts 230°
2026-04-15 10:39 45.08604 19.88640 5649 ft 241 kts 198°
2026-04-15 10:39 45.06953 19.88188 5476 ft 245 kts 178°
2026-04-15 10:39 45.05319 19.88632 5312 ft 247 kts 154°
2026-04-15 10:39 45.04051 19.90196 5056 ft 245 kts 117°
2026-04-15 10:40 45.03380 19.92376 4919 ft 240 kts 114°
2026-04-15 10:40 45.02568 19.94426 4748 ft 237 kts 123°
2026-04-15 10:40 45.01579 19.96290 4581 ft 237 kts 129°
2026-04-15 10:40 45.00478 19.98004 4419 ft 234 kts 133°
2026-04-15 10:41 44.99311 19.99590 4274 ft 229 kts 136°
2026-04-15 10:41 44.98129 20.01039 4127 ft 222 kts 139°
2026-04-15 10:41 44.96952 20.02390 3977 ft 215 kts 140°
2026-04-15 10:41 44.95785 20.03676 3832 ft 211 kts 141°
2026-04-15 10:42 44.94634 20.04932 3716 ft 206 kts 141°
2026-04-15 10:42 44.93523 20.06125 3589 ft 196 kts 141°
2026-04-15 10:42 44.92465 20.07261 3439 ft 186 kts 141°
2026-04-15 10:42 44.91500 20.08434 3218 ft 180 kts 127°
2026-04-15 10:43 44.90894 20.09952 2917 ft 177 kts 114°
2026-04-15 10:43 44.90379 20.11482 2738 ft 167 kts 119°
2026-04-15 10:43 44.89808 20.12866 2514 ft 162 kts 122°
2026-04-15 10:43 44.89228 20.14203 2254 ft 157 kts 120°
2026-04-15 10:44 44.88682 20.15502 2044 ft 152 kts 119°
2026-04-15 10:44 44.88141 20.16795 1794 ft 152 kts 120°
2026-04-15 10:44 44.87628 20.18038 1671 ft 148 kts 121°
2026-04-15 10:44 44.87115 20.19177 1498 ft 146 kts 122°
2026-04-15 10:45 44.86559 20.20347 1420 ft 136 kts 123°
2026-04-15 10:45 44.86050 20.21428 1452 ft 136 kts 121°
2026-04-15 10:45 44.85557 20.22551 1473 ft 133 kts 121°
2026-04-15 10:45 44.85118 20.23565 1234 ft 135 kts 122°
2026-04-15 10:46 44.84630 20.24647 955 ft 133 kts 123°
2026-04-15 10:46 44.84126 20.25787 811 ft 139 kts 123°
2026-04-15 10:46 44.83619 20.26947 649 ft 138 kts 123°
2026-04-15 10:46 44.83101 20.28094 435 ft 138 kts 125°
2026-04-15 10:47 44.82587 20.29258 337 ft 141 kts 124°
2026-04-15 10:47 44.82115 20.30321 325 ft 104 kts 124°
2026-04-15 10:47 44.81843 20.30928 332 ft 43 kts 123°
2026-04-15 10:47 44.81787 20.31056 332 ft 1 kts 121°
2026-04-15 10:48 44.81770 20.31095 327 ft 10 kts 124°
2026-04-15 10:48 44.81713 20.31180 330 ft 13 kts 152°
2026-04-15 10:48 44.81632 20.31223 329 ft 12 kts 172°
2026-04-15 10:48 44.81549 20.31212 334 ft 12 kts 199°
2026-04-15 10:49 44.81482 20.31146 330 ft 12 kts 218°
2026-04-15 10:49 44.81475 20.31044 331 ft 11 kts 298°
2026-04-15 10:49 44.81522 20.30939 331 ft 14 kts 302°
2026-04-15 10:49 44.81582 20.30801 332 ft 18 kts 301°
2026-04-15 10:50 44.81656 20.30633 330 ft 22 kts 302°
2026-04-15 10:50 44.81743 20.30437 328 ft 25 kts 301°
2026-04-15 10:50 44.81821 20.30254 328 ft 24 kts 301°
2026-04-15 10:50 44.81906 20.30063 326 ft 23 kts 302°
2026-04-15 10:51 44.81989 20.29879 326 ft 22 kts 302°
2026-04-15 10:51 44.82069 20.29698 327 ft 21 kts 301°
2026-04-15 10:51 44.82118 20.29575 326 ft 10 kts 276°
2026-04-15 10:51 44.82086 20.29493 326 ft 10 kts 252°
2026-04-15 10:52 44.82112 20.29410 327 ft 9 kts 302°
2026-04-15 10:52 44.82131 20.29328 327 ft 7 kts 255°
2026-04-15 10:52 44.82112 20.29291 322 ft 2 kts 220°
2026-04-15 10:52 44.82101 20.29282 325 ft 2 kts 209°